Theta_e
284 284 284 284 285 284 285 285 283 280 282 288 285 287 287 286 287 291 293 295 298 298 299 300 301 300 300 300 300 300 300 301 302 303 303 302 302 304
283 283 284 284 284 285 285 286 287 284 282 287 287 286 287 288 288 289 291 292 294 295 296 297 297 297 297 297 298 299 300 301 301 301 301 301 302 304
281 282 282 283 283 285 285 287 286 286 283 287 287 286 286 286 287 288 289 291 292 293 294 294 294 294 295 295 296 298 299 299 299 298 299 300 301 302
279 280 281 282 283 284 284 286 286 287 285 284 286 285 285 285 285 285 286 288 289 292 292 292 292 293 293 294 296 297 297 296 295 296 297 298 299 301
279 279 280 281 281 282 284 285 287 287 286 286 285 286 285 285 285 285 285 286 287 288 289 290 291 293 294 295 296 296 295 294 294 294 294 296 296 298
279 279 280 281 281 282 285 285 286 286 286 285 285 285 286 285 285 285 284 286 285 286 286 287 289 290 292 294 294 294 293 293 293 293 293 294 294 296
278 278 280 281 282 285 285 285 284 284 284 284 283 284 283 285 284 285 284 284 284 285 285 285 287 287 287 290 292 293 293 292 293 293 293 293 293 294
276 278 280 281 283 285 285 285 285 283 282 282 282 282 282 283 285 285 284 284 282 286 285 284 286 285 285 289 293 292 292 292 292 292 292 292 293 293
275 277 278 281 284 284 284 285 284 285 285 283 281 281 282 283 285 285 285 284 282 284 285 283 285 284 284 287 292 291 291 292 292 292 292 292 292 292
275 276 277 280 283 283 282 283 284 284 284 284 283 283 283 284 285 286 285 284 284 285 285 282 284 282 284 284 289 290 290 291 291 292 293 293 292 292
275 276 277 281 282 283 281 281 282 282 285 284 284 284 283 284 284 286 284 283 282 282 285 284 283 282 283 283 285 287 288 289 290 291 292 292 292 291
275 276 278 281 281 281 280 279 279 279 281 282 283 283 283 282 282 283 284 283 282 282 284 283 283 284 283 284 286 286 286 287 288 290 291 291 292 288
274 275 277 279 279 280 280 278 278 280 281 282 282 282 282 282 282 282 282 284 283 282 284 285 284 284 285 283 284 286 287 286 287 287 289 291 291 291
272 275 276 278 277 278 278 278 279 279 281 281 281 280 280 281 282 282 282 283 284 284 284 285 284 285 285 282 281 285 286 287 287 286 286 288 290 290
272 274 275 276 276 274 276 277 276 276 277 277 278 279 281 282 283 283 283 283 284 284 284 284 286 286 287 283 282 283 284 285 286 285 286 286 285 286
270 271 272 274 275 275 274 274 274 274 274 275 277 279 282 283 282 283 282 283 283 282 284 285 286 286 284 284 284 283 284 283 286 285 286 286 286 286
269 271 271 271 271 271 273 273 273 273 273 274 275 277 279 281 281 282 282 283 282 281 282 284 285 285 285 284 282 283 284 284 286 285 286 286 286 286
268 268 267 268 267 268 269 271 272 271 271 272 273 275 276 279 280 281 281 281 280 281 281 283 284 283 284 284 285 284 284 284 286 286 285 285 285 286
266 265 265 265 265 266 267 269 269 270 271 271 271 273 275 277 279 279 280 280 280 280 280 281 284 284 280 277 283 286 284 285 286 285 285 285 285 285
264 264 263 264 264 264 265 266 268 269 270 269 270 271 272 275 277 278 278 278 279 280 280 280 280 283 282 280 281 283 285 285 285 285 285 287 286 288
264 263 263 263 263 264 264 265 266 267 268 268 269 270 270 273 275 277 278 277 278 279 277 277 277 276 280 285 282 282 285 286 285 284 285 285 286 286
264 264 263 263 262 263 263 264 266 266 266 267 268 269 270 272 273 276 277 277 277 277 277 279 281 284 284 282 281 282 284 286 287 286 286 286 284 284
263 263 263 263 262 263 263 264 264 266 265 265 267 268 269 270 272 276 278 277 278 279 280 281 283 283 283 283 283 283 284 284 285 285 285 286 286 286
Wind_Speed
11 13 11 10 9 10 10 9 7 7 7 6 6 9 8 9 15 12 14 24 25 24 22 19 20 17 15 14 12 10 7 7 9 9 10 10 10 12
9 13 12 11 11 10 10 9 7 6 4 3 4 5 6 7 11 11 13 18 20 20 20 20 18 16 16 14 12 9 8 10 10 11 11 11 11 13
12 13 14 15 11 10 10 9 9 7 6 3 4 6 7 7 8 8 10 9 9 18 19 19 17 16 15 13 10 10 11 12 11 11 12 11 13 16
13 13 14 12 14 15 11 13 11 10 4 6 5 6 7 6 6 8 7 8 9 18 20 18 18 16 15 12 12 11 14 12 12 12 13 12 16 17
12 13 13 15 15 13 12 11 11 9 8 4 4 3 4 3 6 6 6 7 7 15 17 18 17 15 15 14 12 13 14 12 12 13 14 15 16 17
10 12 12 14 15 14 11 11 11 9 9 7 5 4 3 3 3 3 6 5 6 6 11 11 11 14 15 15 14 14 13 13 13 14 14 15 17 18
10 11 11 15 20 17 9 11 11 9 8 8 7 5 5 3 3 2 4 4 6 5 6 7 6 6 8 11 10 15 16 14 13 14 15 16 17 18
9 11 12 13 18 19 19 18 15 11 10 8 7 8 8 5 3 2 2 0 2 4 4 7 5 6 6 5 17 17 16 15 14 16 16 17 17 17
8 10 10 10 13 13 16 15 14 16 15 8 9 8 7 8 4 1 3 3 3 3 2 6 4 6 7 8 19 16 16 16 18 18 18 18 18 17
7 9 11 12 14 14 11 11 9 9 9 7 8 7 7 8 5 3 3 5 5 4 4 3 3 4 5 6 17 16 17 17 18 20 21 20 18 16
7 9 11 11 18 19 12 11 10 10 9 12 12 12 12 14 10 1 4 3 3 3 3 2 1 3 3 6 6 13 15 17 18 19 21 23 19 16
6 8 15 16 19 18 11 10 10 10 10 9 7 9 10 10 14 7 4 0 3 2 2 1 1 1 3 3 6 6 6 15 16 18 20 22 23 7
5 7 8 18 17 18 16 10 10 9 10 7 7 6 7 8 7 6 5 4 1 2 2 1 1 1 2 3 4 7 7 9 7 9 16 20 20 18
6 7 8 15 14 17 14 18 17 11 7 7 7 7 6 7 6 6 6 5 5 5 2 3 1 1 3 4 3 4 7 8 7 8 8 13 17 18
5 9 12 14 14 12 19 19 13 9 8 8 7 7 7 5 4 2 3 4 6 6 5 3 3 4 4 5 4 4 3 7 8 7 8 8 8 7
6 6 8 10 12 11 10 12 9 9 8 8 7 7 7 6 5 4 2 4 6 7 6 6 6 8 8 7 7 7 6 5 5 6 5 6 8 8
4 6 7 7 9 9 9 9 9 9 9 8 8 8 7 7 6 4 4 4 5 4 7 7 10 12 10 8 8 6 7 6 5 6 5 7 7 7
5 6 7 7 8 8 9 9 9 10 9 9 8 8 7 7 6 6 6 6 5 5 5 2 7 10 9 12 15 6 6 6 5 6 5 6 7 8
8 6 6 6 7 7 8 8 9 8 9 8 8 8 8 7 7 7 6 5 5 4 2 2 2 3 10 9 2 17 5 5 4 5 6 5 3 5
7 6 5 5 5 6 7 7 8 8 9 8 8 8 8 7 6 6 6 5 4 3 5 6 6 6 6 5 5 5 16 5 3 4 4 3 2 6
5 5 4 4 5 5 6 7 7 8 8 8 8 7 7 7 6 6 5 7 5 5 6 5 4 5 1 2 7 7 7 13 10 4 3 2 3 3
4 4 3 4 4 5 6 7 7 8 8 8 7 7 7 6 6 6 5 5 6 5 3 2 3 2 4 6 9 8 5 5 9 14 14 7 2 3
3 4 3 3 4 4 5 6 6 7 7 8 7 7 7 7 7 6 5 5 4 4 3 4 5 4 5 6 8 8 10 7 4 5 5 12 12 10
Wind_Direction
340 340 344 347 344 333 333 331 336 336 333 6 1 6 9 20 25 34 46 57 64 68 73 80 84 86 88 87 80 75 79 84 70 59 46 31 16 10
344 341 344 348 350 339 338 334 342 339 322 333 3 354 7 32 27 35 47 55 65 73 76 75 76 76 74 71 67 68 69 66 60 51 44 25 19 11
347 344 344 347 350 343 340 345 350 350 331 327 11 4 20 33 33 43 39 49 62 71 73 74 73 69 68 64 68 61 57 54 49 45 41 24 19 17
348 346 348 345 352 348 339 355 350 354 335 338 8 13 37 28 30 41 36 37 45 62 65 67 63 61 61 66 52 47 61 47 42 35 35 26 22 19
348 345 348 345 350 341 339 356 358 357 360 351 14 16 44 33 59 43 43 50 48 54 56 52 52 57 58 45 47 54 53 45 34 37 32 25 22 19
353 347 348 346 343 337 351 359 359 0 2 11 14 9 17 23 44 56 63 41 57 50 55 43 46 42 34 36 53 50 44 41 34 33 30 28 26 23
359 353 343 336 343 353 359 7 3 5 10 12 14 19 17 10 18 44 77 74 48 40 53 37 29 26 15 10 53 50 43 37 35 33 29 32 30 26
357 354 347 347 344 3 6 19 17 11 17 11 11 16 6 3 8 50 97 172 92 35 40 53 13 31 15 23 52 47 43 40 38 32 30 31 32 29
3 355 352 346 345 2 0 15 19 16 26 13 13 14 357 353 346 24 26 47 77 99 44 62 7 39 11 17 43 41 44 42 40 35 32 32 27 28
4 354 343 339 1 2 1 6 13 11 12 16 21 14 8 355 1 347 71 96 93 64 359 89 15 51 18 23 32 34 37 42 40 37 34 30 30 23
356 352 342 356 4 10 8 6 5 11 10 16 18 24 25 23 19 116 124 134 89 50 23 80 26 86 44 26 16 28 35 36 38 37 32 30 29 22
9 3 356 10 7 16 15 6 5 0 352 6 15 29 28 22 26 26 346 104 105 114 47 52 161 286 104 26 20 22 26 37 37 31 28 31 29 23
18 4 4 9 8 17 21 15 4 349 1 9 12 22 26 31 26 14 14 349 90 59 48 298 175 169 69 105 20 19 30 30 21 19 21 28 31 36
20 7 359 15 19 17 20 15 14 11 12 14 20 21 13 17 26 22 27 41 48 64 53 320 153 56 112 101 64 9 37 40 23 23 16 15 29 28
13 3 8 13 22 17 15 18 17 15 13 17 11 5 8 9 13 38 71 82 74 51 33 11 80 82 64 105 107 40 36 32 24 31 18 19 23 11
13 14 15 18 30 23 14 16 17 12 8 7 356 351 356 16 31 16 55 64 67 53 44 46 69 84 90 77 89 75 47 66 357 17 16 29 28 26
10 29 25 22 20 16 14 16 12 8 14 1 4 0 6 11 31 25 32 62 88 92 79 75 75 75 64 75 78 61 61 58 31 12 12 40 29 18
54 39 33 24 27 11 6 3 9 8 5 358 5 5 5 14 22 37 48 55 75 73 70 53 112 104 90 63 43 59 56 57 25 17 14 44 35 14
67 47 37 23 17 13 358 356 360 359 350 1 7 4 4 10 26 34 37 45 58 60 36 358 7 90 103 88 64 32 52 46 38 43 31 20 31 4
59 49 30 21 14 14 357 351 355 360 3 2 5 4 1 1 20 30 33 37 46 50 58 36 36 46 91 104 108 63 38 53 20 42 19 355 290 309
58 59 30 19 14 15 357 344 351 0 358 1 4 1 358 359 11 23 37 37 48 53 69 65 26 326 295 109 93 74 53 46 54 36 2 357 353 0
73 64 41 23 17 21 5 352 352 7 7 4 360 358 355 357 3 6 25 43 53 56 66 57 31 38 87 91 93 90 78 55 40 43 43 36 352 39
95 77 45 26 16 19 21 6 359 0 4 359 355 354 352 359 349 359 21 37 51 69 55 72 69 66 73 86 93 90 79 60 31 51 41 29 55 61